Back to catalog

CZ-6A DEB

AlivePO
NORAD 60696·DEBRIS·🇨🇳 China

Launched Aug 6, 2024 from Taiyuan Satellite Launch Center

Loading…

Next Passes (next 24 hours)

TLE

FreshSource: Space-Track

Epoch: Sep 14, 2026, 11:34 UTC

1 60696U 24140CZ  26257.48263578  .00000191  00000-0  88964-4 0  9993
2 60696  89.0259 267.9798 0059624 270.4500  88.9856 14.15698529108579

Track CZ-6A DEB in real time with AllMySat

Download on the App Store